Regional Weather Roundup
Issued by NWS Little Rock, AR

Home | Current Version | Previous Version | Graphics & Text | Print | Product List | Glossary On
Versions: 1 2 3 4 5 6 7 8 9 10 11 12 13 14 15 16 17 18 19 20 21 22 23 24 25 26 27 28 29 30 31 32 33 34 35 36 37 38 39 40 41 42 43 44 45 46 47 48 49 50
481
ASUS44 KLZK 221305
RWRLZK

WEATHER ROUNDUP FOR ARKANSAS
NATIONAL WEATHER SERVICE LITTLE ROCK AR
700 AM CST SUN JAN 22 2017

NOTE: "FAIR" INDICATES FEW OR NO CLOUDS BELOW 12,000 FEET WITH NO
SIGNIFICANT WEATHER AND/OR OBSTRUCTIONS TO VISIBILITY.

ARZ001-003-010-029-221400-
NORTHWEST ARKANSAS

CITY           SKY/WX    TMP DP  RH WIND       PRES   REMARKS
FAYETTEVILLE   RAIN      50  49  96 W10       29.37R FOG
FORT SMITH     CLOUDY    53  50  89 S6        29.35S
HARRISON       LGT RAIN  50  50 100 E5        29.39R
BENTONVILLE    CLOUDY   N/A N/A N/A NE7       29.38S
ROGERS         RAIN      49  49 100 N6        29.38F FOG
SILOAM SPGS    CLOUDY    52  48  87 SE6       29.39R
HIGHFILL       RAIN      50  50 100 N7        29.38R FOG
SPRINGDALE     LGT RAIN  50  50 100 N6        29.39R FOG
$$

ARZ004-005-016-221400-
NORTH CENTRAL ARKANSAS

CITY           SKY/WX    TMP DP  RH WIND       PRES   REMARKS
BATESVILLE     CLOUDY    54  52  94 SW3       29.42R VSB 3/4
FLIPPIN        CLOUDY    54  48  82 W5        29.37S
MTN HOME       CLOUDY    53  51  93 W5        29.38S
$$

ARZ040-041-221400-
WEST CENTRAL ARKANSAS

CITY           SKY/WX    TMP DP  RH WIND       PRES   REMARKS
MENA           CLOUDY    52  52 100 SW5       29.35F
MOUNT IDA      CLOUDY    54  52  93 CALM      29.33S
$$

ARZ009-017-025-026-028-221400-
NORTHEAST ARKANSAS

CITY           SKY/WX    TMP DP  RH WIND       PRES   REMARKS
CORNING        FAIR      54  54 100 NE13      29.38F
JONESBORO      PTCLDY    52  51  97 E7        29.36F
NEWPORT        CLOUDY    53  53 100 SW6       29.40R
WALNUT RIDGE   PTCLDY    54  48  82 NE5       29.37F
BLYTHEVILLE    MOCLDY    55  53  93 E9        29.41F
$$

ARZ022-023-033-042-044-221400-
CENTRAL ARKANSAS

CITY           SKY/WX    TMP DP  RH WIND       PRES   REMARKS
LITTLE ROCK    DRIZZLE   54  54 100 SE12      29.37F
N LITTLE ROCK    N/A     53  52  96 SE7       29.37F
JACKSONVILLE   CLOUDY    55  54  99 SE5       29.36F FOG
SEARCY         CLOUDY    53  53 100 NE6       29.39F
HOT SPRINGS    CLOUDY    54  53  97 SW3       29.37S
RUSSELLVILLE   RAIN      54  53  97 SE3       29.37S
$$

ARZ036-221400-
EAST ARKANSAS

CITY           SKY/WX    TMP DP  RH WIND       PRES   REMARKS
WEST MEMPHIS   CLOUDY    54  54 100 SE3       29.37F
$$

ARZ050-053-066-070-073-221400-
SOUTHWEST ARKANSAS

CITY           SKY/WX    TMP DP  RH WIND       PRES   REMARKS
ARKADELPHIA    CLOUDY    52  52 100 CALM      29.38R
CAMDEN         LGT RAIN  54  50  87 S3        29.38F
TEXARKANA      CLOUDY    53  47  79 W12       29.37S
EL DORADO        N/A    N/A N/A N/A MISG      29.38F
DE QUEEN       CLOUDY    49  49 100 CALM      29.35S
$$

ARZ056-057-069-221400-
SOUTHEAST ARKANSAS

CITY           SKY/WX    TMP DP  RH WIND       PRES   REMARKS
PINE BLUFF     MOCLDY    54  53  97 E9        29.38F
STUTTGART      CLOUDY    54  48  82 CALM      29.39F
MONTICELLO     CLOUDY    56  53  90 S7        29.41S

$$






USA.gov is the U.S. government's official web portal to all federal, state and local government web resources and services.